Year,Month,Day,Hour,Minute,Value (Times are PST for temperature in C)
2013,10,28,00,00,13.30
2013,10,28,00,01,13.30
2013,10,28,00,02,13.30
2013,10,28,00,03,13.20
2013,10,28,00,04,13.20
2013,10,28,00,05,13.20
2013,10,28,00,06,13.20
2013,10,28,00,07,13.20
2013,10,28,00,08,13.10
2013,10,28,00,09,13.10
2013,10,28,00,10,13.10
2013,10,28,00,11,13.00
2013,10,28,00,12,12.90
2013,10,28,00,13,12.90
2013,10,28,00,14,12.90
2013,10,28,00,15,12.90
2013,10,28,00,16,12.80
2013,10,28,00,17,12.80
2013,10,28,00,18,12.80
2013,10,28,00,19,12.80
2013,10,28,00,20,12.80
2013,10,28,00,21,12.80
2013,10,28,00,22,12.70
2013,10,28,00,23,12.80
2013,10,28,00,24,12.70
2013,10,28,00,25,12.70
2013,10,28,00,26,12.70
2013,10,28,00,27,12.70
2013,10,28,00,28,12.70
2013,10,28,00,29,12.80
2013,10,28,00,30,12.80
2013,10,28,00,31,12.80
2013,10,28,00,32,12.80
2013,10,28,00,33,12.80
2013,10,28,00,34,12.80
2013,10,28,00,35,12.80
2013,10,28,00,36,12.80
2013,10,28,00,37,12.80
2013,10,28,00,38,12.80
2013,10,28,00,39,12.80
2013,10,28,00,40,12.70
2013,10,28,00,41,12.70
2013,10,28,00,42,12.70
2013,10,28,00,43,12.60
2013,10,28,00,44,12.60
2013,10,28,00,45,12.60
2013,10,28,00,46,12.60
2013,10,28,00,47,12.50
2013,10,28,00,48,12.50
2013,10,28,00,49,12.50
2013,10,28,00,50,12.40
2013,10,28,00,51,12.40
2013,10,28,00,52,12.40
2013,10,28,00,53,12.40
2013,10,28,00,54,12.40
2013,10,28,00,55,12.40
2013,10,28,00,56,12.40
2013,10,28,00,57,12.30
2013,10,28,00,58,12.30
2013,10,28,00,59,12.30
2013,10,28,01,00,12.30
2013,10,28,01,01,12.20
2013,10,28,01,02,12.20
2013,10,28,01,03,12.20
2013,10,28,01,04,12.20
2013,10,28,01,05,12.20
2013,10,28,01,06,12.20
2013,10,28,01,07,12.20
2013,10,28,01,08,12.20
2013,10,28,01,09,12.20
2013,10,28,01,10,12.20
2013,10,28,01,11,12.20
2013,10,28,01,12,12.20
2013,10,28,01,13,12.10
2013,10,28,01,14,12.10
2013,10,28,01,15,12.10
2013,10,28,01,16,12.00
2013,10,28,01,17,11.90
2013,10,28,01,18,11.90
2013,10,28,01,19,11.80
2013,10,28,01,20,11.80
2013,10,28,01,21,11.80
2013,10,28,01,22,11.70
2013,10,28,01,23,11.70
2013,10,28,01,24,11.70
2013,10,28,01,25,11.70
2013,10,28,01,26,11.60
2013,10,28,01,27,11.60
2013,10,28,01,28,11.60
2013,10,28,01,29,11.50
2013,10,28,01,30,11.50
2013,10,28,01,31,11.50
2013,10,28,01,32,11.50
2013,10,28,01,33,11.60
2013,10,28,01,34,11.60
2013,10,28,01,35,11.70
2013,10,28,01,36,11.70
2013,10,28,01,37,11.80
2013,10,28,01,38,11.90
2013,10,28,01,39,12.10
2013,10,28,01,40,12.20
2013,10,28,01,41,12.30
2013,10,28,01,42,12.40
2013,10,28,01,43,12.50
2013,10,28,01,44,12.60
2013,10,28,01,45,12.60
2013,10,28,01,46,12.60
2013,10,28,01,47,12.60
2013,10,28,01,48,12.60
2013,10,28,01,49,12.60
2013,10,28,01,50,12.60
2013,10,28,01,51,12.60
2013,10,28,01,52,12.60
2013,10,28,01,53,12.60
2013,10,28,01,54,12.60
2013,10,28,01,55,12.60
2013,10,28,01,56,12.50
2013,10,28,01,57,12.40
2013,10,28,01,58,12.40
2013,10,28,01,59,12.40
2013,10,28,02,00,12.40
2013,10,28,02,01,12.40
2013,10,28,02,02,12.40
2013,10,28,02,03,12.40
2013,10,28,02,04,12.40
2013,10,28,02,05,12.40
2013,10,28,02,06,12.40
2013,10,28,02,07,12.40
2013,10,28,02,08,12.30
2013,10,28,02,09,12.30
2013,10,28,02,10,12.30
2013,10,28,02,11,12.30
2013,10,28,02,12,12.20
2013,10,28,02,13,12.20
2013,10,28,02,14,12.20
2013,10,28,02,15,12.10
2013,10,28,02,16,12.10
2013,10,28,02,17,12.10
2013,10,28,02,18,12.10
2013,10,28,02,19,12.10
2013,10,28,02,20,12.10
2013,10,28,02,21,12.10
2013,10,28,02,22,12.20
2013,10,28,02,23,12.20
2013,10,28,02,24,12.20
2013,10,28,02,25,12.20
2013,10,28,02,26,12.20
2013,10,28,02,27,12.10
2013,10,28,02,28,12.10
2013,10,28,02,29,12.10
2013,10,28,02,30,12.00
2013,10,28,02,31,11.90
2013,10,28,02,32,11.90
2013,10,28,02,33,11.80
2013,10,28,02,34,11.80
2013,10,28,02,35,11.70
2013,10,28,02,36,11.70
2013,10,28,02,37,11.60
2013,10,28,02,38,11.50
2013,10,28,02,39,11.40
2013,10,28,02,40,11.30
2013,10,28,02,41,11.30
2013,10,28,02,42,11.20
2013,10,28,02,43,11.20
2013,10,28,02,44,11.10
2013,10,28,02,45,11.00
2013,10,28,02,46,10.90
2013,10,28,02,47,10.80
2013,10,28,02,48,10.80
2013,10,28,02,49,10.80
2013,10,28,02,50,10.70
2013,10,28,02,51,10.70
2013,10,28,02,52,10.70
2013,10,28,02,53,10.60
2013,10,28,02,54,10.60
2013,10,28,02,55,10.50
2013,10,28,02,56,10.40
2013,10,28,02,57,10.40
2013,10,28,02,58,10.40
2013,10,28,02,59,10.30
2013,10,28,03,00,10.30
2013,10,28,03,01,10.20
2013,10,28,03,02,10.20
2013,10,28,03,03,10.20
2013,10,28,03,04,10.10
2013,10,28,03,05,10.10
2013,10,28,03,06,10.00
2013,10,28,03,07,9.90
2013,10,28,03,08,9.90
2013,10,28,03,09,9.90
2013,10,28,03,10,9.90
2013,10,28,03,11,9.90
2013,10,28,03,12,9.70
2013,10,28,03,13,9.70
2013,10,28,03,14,9.60
2013,10,28,03,15,9.60
2013,10,28,03,16,9.60
2013,10,28,03,17,9.50
2013,10,28,03,18,9.40
2013,10,28,03,19,9.40
2013,10,28,03,20,9.40
2013,10,28,03,21,9.30
2013,10,28,03,22,9.30
2013,10,28,03,23,9.30
2013,10,28,03,24,9.20
2013,10,28,03,25,9.20
2013,10,28,03,26,9.20
2013,10,28,03,27,9.20
2013,10,28,03,28,9.10
2013,10,28,03,29,9.10
2013,10,28,03,30,9.10
2013,10,28,03,31,9.10
2013,10,28,03,32,9.10
2013,10,28,03,33,9.10
2013,10,28,03,34,9.10
2013,10,28,03,35,9.10
2013,10,28,03,36,9.00
2013,10,28,03,37,9.10
2013,10,28,03,38,9.00
2013,10,28,03,39,9.00
2013,10,28,03,40,9.10
2013,10,28,03,41,9.10
2013,10,28,03,42,9.10
2013,10,28,03,43,9.10
2013,10,28,03,44,9.10
2013,10,28,03,45,9.10
2013,10,28,03,46,9.00
2013,10,28,03,47,8.90
2013,10,28,03,48,8.90
2013,10,28,03,49,8.90
2013,10,28,03,50,8.90
2013,10,28,03,51,8.80
2013,10,28,03,52,8.80
2013,10,28,03,53,8.80
2013,10,28,03,54,8.70
2013,10,28,03,55,8.70
2013,10,28,03,56,8.70
2013,10,28,03,57,8.70
2013,10,28,03,58,8.70
2013,10,28,03,59,8.70
2013,10,28,04,00,8.70
2013,10,28,04,01,8.70
2013,10,28,04,02,8.70
2013,10,28,04,03,8.70
2013,10,28,04,04,8.70
2013,10,28,04,05,8.70
2013,10,28,04,06,8.70
2013,10,28,04,07,8.70
2013,10,28,04,08,8.70
2013,10,28,04,09,8.70
2013,10,28,04,10,8.70
2013,10,28,04,11,8.70
2013,10,28,04,12,8.70
2013,10,28,04,13,8.60
2013,10,28,04,14,8.60
2013,10,28,04,15,8.50
2013,10,28,04,16,8.40
2013,10,28,04,17,8.40
2013,10,28,04,18,8.40
2013,10,28,04,19,8.30
2013,10,28,04,20,8.30
2013,10,28,04,21,8.20
2013,10,28,04,22,8.20
2013,10,28,04,23,8.10
2013,10,28,04,24,7.90
2013,10,28,04,25,7.90
2013,10,28,04,26,7.80
2013,10,28,04,27,7.70
2013,10,28,04,28,7.70
2013,10,28,04,29,7.60
2013,10,28,04,30,7.50
2013,10,28,04,31,7.40
2013,10,28,04,32,7.30
2013,10,28,04,33,7.30
2013,10,28,04,34,7.20
2013,10,28,04,35,7.20
2013,10,28,04,36,7.20
2013,10,28,04,37,7.20
2013,10,28,04,38,7.20
2013,10,28,04,39,7.10
2013,10,28,04,40,7.10
2013,10,28,04,41,7.10
2013,10,28,04,42,7.10
2013,10,28,04,43,7.20
2013,10,28,04,44,7.20
2013,10,28,04,45,7.20
2013,10,28,04,46,7.20
2013,10,28,04,47,7.20
2013,10,28,04,48,7.20
2013,10,28,04,49,7.30
2013,10,28,04,50,7.30
2013,10,28,04,51,7.30
2013,10,28,04,52,7.30
2013,10,28,04,53,7.30
2013,10,28,04,54,7.20
2013,10,28,04,55,7.20
2013,10,28,04,56,7.20
2013,10,28,04,57,7.20
2013,10,28,04,58,7.20
2013,10,28,04,59,7.20
2013,10,28,05,00,7.10
2013,10,28,05,01,7.10
2013,10,28,05,02,7.10
2013,10,28,05,03,7.00
2013,10,28,05,04,7.00
2013,10,28,05,05,6.90
2013,10,28,05,06,6.90
2013,10,28,05,07,6.80
2013,10,28,05,08,6.80
2013,10,28,05,09,6.80
2013,10,28,05,10,6.80
2013,10,28,05,11,6.80
2013,10,28,05,12,6.70
2013,10,28,05,13,6.70
2013,10,28,05,14,6.70
2013,10,28,05,15,6.70
2013,10,28,05,16,6.70
2013,10,28,05,17,6.70
2013,10,28,05,18,6.70
2013,10,28,05,19,6.70
2013,10,28,05,20,6.70
2013,10,28,05,21,6.70
2013,10,28,05,22,6.70
2013,10,28,05,23,6.70
2013,10,28,05,24,6.70
2013,10,28,05,25,6.70
2013,10,28,05,26,6.70
2013,10,28,05,27,6.60
2013,10,28,05,28,6.60
2013,10,28,05,29,6.60
2013,10,28,05,30,6.60
2013,10,28,05,31,6.60
2013,10,28,05,32,6.60
2013,10,28,05,33,6.50
2013,10,28,05,34,6.40
2013,10,28,05,35,6.40
2013,10,28,05,36,6.30
2013,10,28,05,37,6.30
2013,10,28,05,38,6.30
2013,10,28,05,39,6.20
2013,10,28,05,40,6.20
2013,10,28,05,41,6.10
2013,10,28,05,42,6.10
2013,10,28,05,43,6.10
2013,10,28,05,44,6.00
2013,10,28,05,45,5.90
2013,10,28,05,46,5.90
2013,10,28,05,47,5.80
2013,10,28,05,48,5.70
2013,10,28,05,49,5.70
2013,10,28,05,50,5.60
2013,10,28,05,51,5.60
2013,10,28,05,52,5.60
2013,10,28,05,53,5.50
2013,10,28,05,54,5.40
2013,10,28,05,55,5.40
2013,10,28,05,56,5.40
2013,10,28,05,57,5.40
2013,10,28,05,58,5.40
2013,10,28,05,59,5.40
2013,10,28,06,00,5.40
2013,10,28,06,01,5.40
2013,10,28,06,02,5.30
2013,10,28,06,03,5.30
2013,10,28,06,04,5.30
2013,10,28,06,05,5.20
2013,10,28,06,06,5.20
2013,10,28,06,07,5.20
2013,10,28,06,08,5.10
2013,10,28,06,09,5.10
2013,10,28,06,10,5.00
2013,10,28,06,11,4.90
2013,10,28,06,12,4.90
2013,10,28,06,13,4.90
2013,10,28,06,14,4.80
2013,10,28,06,15,4.80
2013,10,28,06,16,4.80
2013,10,28,06,17,4.70
2013,10,28,06,18,4.70
2013,10,28,06,19,4.60
2013,10,28,06,20,4.60
2013,10,28,06,21,4.60
2013,10,28,06,22,4.50
2013,10,28,06,23,4.40
2013,10,28,06,24,4.40
2013,10,28,06,25,4.40
2013,10,28,06,26,4.40
2013,10,28,06,27,4.30
2013,10,28,06,28,4.30
2013,10,28,06,29,4.30
2013,10,28,06,30,4.30
2013,10,28,06,31,4.20
2013,10,28,06,32,4.20
2013,10,28,06,33,4.20
2013,10,28,06,34,4.20
2013,10,28,06,35,4.20
2013,10,28,06,36,4.10
2013,10,28,06,37,4.10
2013,10,28,06,38,4.10
2013,10,28,06,39,4.10
2013,10,28,06,40,4.00
2013,10,28,06,41,4.00
2013,10,28,06,42,4.00
2013,10,28,06,43,4.00
2013,10,28,06,44,4.00
2013,10,28,06,45,4.00
2013,10,28,06,46,4.00
2013,10,28,06,47,4.00
2013,10,28,06,48,4.00
2013,10,28,06,49,4.00
2013,10,28,06,50,4.00
2013,10,28,06,51,4.00
2013,10,28,06,52,4.00
2013,10,28,06,53,4.00
2013,10,28,06,54,4.00
2013,10,28,06,55,4.00
2013,10,28,06,56,4.00
2013,10,28,06,57,4.00
2013,10,28,06,58,4.00
2013,10,28,06,59,4.00
2013,10,28,07,00,4.10
2013,10,28,07,01,4.10
2013,10,28,07,02,4.10
2013,10,28,07,03,4.10
2013,10,28,07,04,4.10
2013,10,28,07,05,4.10
2013,10,28,07,06,4.00
2013,10,28,07,07,4.00
2013,10,28,07,08,4.00
2013,10,28,07,09,3.90
2013,10,28,07,10,3.90
2013,10,28,07,11,3.90
2013,10,28,07,12,3.80
2013,10,28,07,13,3.80
2013,10,28,07,14,3.80
2013,10,28,07,15,3.70
2013,10,28,07,16,3.70
2013,10,28,07,17,3.70
2013,10,28,07,18,3.70
2013,10,28,07,19,3.70
2013,10,28,07,20,3.60
2013,10,28,07,21,3.60
2013,10,28,07,22,3.60
2013,10,28,07,23,3.60
2013,10,28,07,24,3.60
2013,10,28,07,25,3.60
2013,10,28,07,26,3.60
2013,10,28,07,27,3.60
2013,10,28,07,28,3.60
2013,10,28,07,29,3.60
2013,10,28,07,30,3.60
2013,10,28,07,31,3.60
2013,10,28,07,32,3.60
2013,10,28,07,33,3.60
2013,10,28,07,34,3.60
2013,10,28,07,35,3.60
2013,10,28,07,36,3.50
2013,10,28,07,37,3.50
2013,10,28,07,38,3.40
2013,10,28,07,39,3.40
2013,10,28,07,40,3.40
2013,10,28,07,41,3.40
2013,10,28,07,42,3.40
2013,10,28,07,43,3.40
2013,10,28,07,44,3.40
2013,10,28,07,45,3.30
2013,10,28,07,46,3.30
2013,10,28,07,47,3.30
2013,10,28,07,48,3.20
2013,10,28,07,49,3.20
2013,10,28,07,50,3.10
2013,10,28,07,51,3.10
2013,10,28,07,52,3.00
2013,10,28,07,53,3.00
2013,10,28,07,54,2.90
2013,10,28,07,55,2.90
2013,10,28,07,56,2.90
2013,10,28,07,57,2.80
2013,10,28,07,58,2.80
2013,10,28,07,59,2.80
2013,10,28,08,00,2.80
2013,10,28,08,01,2.80
2013,10,28,08,02,2.80
2013,10,28,08,03,2.70
2013,10,28,08,04,2.70
2013,10,28,08,05,2.70
2013,10,28,08,06,2.70
2013,10,28,08,07,2.70
2013,10,28,08,08,2.70
2013,10,28,08,09,2.70
2013,10,28,08,10,2.70
2013,10,28,08,11,2.70
2013,10,28,08,12,2.70
2013,10,28,08,13,2.70
2013,10,28,08,14,2.70
2013,10,28,08,15,2.70
2013,10,28,08,16,2.70
2013,10,28,08,17,2.70
2013,10,28,08,18,2.70
2013,10,28,08,19,2.70
2013,10,28,08,20,2.70
2013,10,28,08,21,2.70
2013,10,28,08,22,2.70
2013,10,28,08,23,2.70
2013,10,28,08,24,2.70
2013,10,28,08,25,2.70
2013,10,28,08,26,2.60
2013,10,28,08,27,2.60
2013,10,28,08,28,2.60
2013,10,28,08,29,2.60
2013,10,28,08,30,2.60
2013,10,28,08,31,2.60
2013,10,28,08,32,2.60
2013,10,28,08,33,2.60
2013,10,28,08,34,2.60
2013,10,28,08,35,2.60
2013,10,28,08,36,2.60
2013,10,28,08,37,2.50
2013,10,28,08,38,2.60
2013,10,28,08,39,2.50
2013,10,28,08,40,2.50
2013,10,28,08,41,2.50
2013,10,28,08,42,2.60
2013,10,28,08,43,2.50
2013,10,28,08,44,2.50
2013,10,28,08,45,2.50
2013,10,28,08,46,2.60
2013,10,28,08,47,2.60
2013,10,28,08,48,2.60
2013,10,28,08,49,2.70
2013,10,28,08,50,2.70
2013,10,28,08,51,2.70
2013,10,28,08,52,2.70
2013,10,28,08,53,2.80
2013,10,28,08,54,2.80
2013,10,28,08,55,2.80
2013,10,28,08,56,2.80
2013,10,28,08,57,2.90
2013,10,28,08,58,2.90
2013,10,28,08,59,2.90
2013,10,28,09,00,2.90
2013,10,28,09,01,2.90
2013,10,28,09,02,3.00
2013,10,28,09,03,3.00
2013,10,28,09,04,3.10
2013,10,28,09,05,3.10
2013,10,28,09,06,3.10
2013,10,28,09,07,3.10
2013,10,28,09,08,3.20
2013,10,28,09,09,3.20
2013,10,28,09,10,3.20
2013,10,28,09,11,3.30
2013,10,28,09,12,3.30
2013,10,28,09,13,3.40
2013,10,28,09,14,3.40
2013,10,28,09,15,3.40
2013,10,28,09,16,3.50
2013,10,28,09,17,3.50
2013,10,28,09,18,3.60
2013,10,28,09,19,3.60
2013,10,28,09,20,3.70
2013,10,28,09,21,3.80
2013,10,28,09,22,3.80
2013,10,28,09,23,3.80
2013,10,28,09,24,3.90
2013,10,28,09,25,3.90
2013,10,28,09,26,4.00
2013,10,28,09,27,4.10
2013,10,28,09,28,4.10
2013,10,28,09,29,4.10
2013,10,28,09,30,4.20
2013,10,28,09,31,4.20
2013,10,28,09,32,4.30
2013,10,28,09,33,4.30
2013,10,28,09,34,4.40
2013,10,28,09,35,4.40
2013,10,28,09,36,4.50
2013,10,28,09,37,4.60
2013,10,28,09,38,4.60
2013,10,28,09,39,4.70
2013,10,28,09,40,4.70
2013,10,28,09,41,4.80
2013,10,28,09,42,4.80
2013,10,28,09,43,4.80
2013,10,28,09,44,4.90
2013,10,28,09,45,5.00
2013,10,28,09,46,5.10
2013,10,28,09,47,5.10
2013,10,28,09,48,5.20
2013,10,28,09,49,5.30
2013,10,28,09,50,5.30
2013,10,28,09,51,5.30
2013,10,28,09,52,5.40
2013,10,28,09,53,5.40
2013,10,28,09,54,5.50
2013,10,28,09,55,5.60
2013,10,28,09,56,5.60
2013,10,28,09,57,5.70
2013,10,28,09,58,5.70
2013,10,28,09,59,5.80
2013,10,28,10,00,5.80
2013,10,28,10,01,5.90
2013,10,28,10,02,5.90
2013,10,28,10,03,6.10
2013,10,28,10,04,6.20
2013,10,28,10,05,6.20
2013,10,28,10,06,6.30
2013,10,28,10,07,6.40
2013,10,28,10,08,6.60
2013,10,28,10,09,6.70
2013,10,28,10,10,6.80
2013,10,28,10,11,6.80
2013,10,28,10,12,6.90
2013,10,28,10,13,7.00
2013,10,28,10,14,7.10
2013,10,28,10,15,7.10
2013,10,28,10,16,7.20
2013,10,28,10,17,7.20
2013,10,28,10,18,7.30
2013,10,28,10,19,7.30
2013,10,28,10,20,7.40
2013,10,28,10,21,7.40
2013,10,28,10,22,7.40
2013,10,28,10,23,7.40
2013,10,28,10,24,7.40
2013,10,28,10,25,7.50
2013,10,28,10,26,7.50
2013,10,28,10,27,7.50
2013,10,28,10,28,7.50
2013,10,28,10,29,7.60
2013,10,28,10,30,7.60
2013,10,28,10,31,7.60
2013,10,28,10,32,7.70
2013,10,28,10,33,7.70
2013,10,28,10,34,7.70
2013,10,28,10,35,7.80
2013,10,28,10,36,7.80
2013,10,28,10,37,7.90
2013,10,28,10,38,7.90
2013,10,28,10,39,7.90
2013,10,28,10,40,8.10
2013,10,28,10,41,8.10
2013,10,28,10,42,8.20
2013,10,28,10,43,8.20
2013,10,28,10,44,8.30
2013,10,28,10,45,8.40
2013,10,28,10,46,8.40
2013,10,28,10,47,8.60
2013,10,28,10,48,8.60
2013,10,28,10,49,8.70
2013,10,28,10,50,8.80
2013,10,28,10,51,8.80
2013,10,28,10,52,8.90
2013,10,28,10,53,9.10
2013,10,28,10,54,9.20
2013,10,28,10,55,9.30
2013,10,28,10,56,9.50
2013,10,28,10,57,9.70
2013,10,28,10,58,9.80
2013,10,28,10,59,9.90
2013,10,28,11,00,10.10
2013,10,28,11,01,10.20
2013,10,28,11,02,10.30
2013,10,28,11,03,10.30
2013,10,28,11,04,10.40
2013,10,28,11,05,10.50
2013,10,28,11,06,10.60
2013,10,28,11,07,10.60
2013,10,28,11,08,10.60
2013,10,28,11,09,10.80
2013,10,28,11,10,10.80
2013,10,28,11,11,10.90
2013,10,28,11,12,11.00
2013,10,28,11,13,11.10
2013,10,28,11,14,11.10
2013,10,28,11,15,11.20
2013,10,28,11,16,11.20
2013,10,28,11,17,11.30
2013,10,28,11,18,11.30
2013,10,28,11,19,11.30
2013,10,28,11,20,11.30
2013,10,28,11,21,11.40
2013,10,28,11,22,11.40
2013,10,28,11,23,11.50
2013,10,28,11,24,11.60
2013,10,28,11,25,11.70
2013,10,28,11,26,11.70
2013,10,28,11,27,11.80
2013,10,28,11,28,11.90
2013,10,28,11,29,12.00
2013,10,28,11,30,12.10
2013,10,28,11,31,12.10
2013,10,28,11,32,12.20
2013,10,28,11,33,12.20
2013,10,28,11,34,12.20
2013,10,28,11,35,12.30
2013,10,28,11,36,12.30
2013,10,28,11,37,12.40
2013,10,28,11,38,12.50
2013,10,28,11,39,12.60
2013,10,28,11,40,12.60
2013,10,28,11,41,12.60
2013,10,28,11,42,12.70
2013,10,28,11,43,12.70
2013,10,28,11,44,12.80
2013,10,28,11,45,12.80
2013,10,28,11,46,12.80
2013,10,28,11,47,12.90
2013,10,28,11,48,12.90
2013,10,28,11,49,12.90
2013,10,28,11,50,12.90
2013,10,28,11,51,13.00
2013,10,28,11,52,13.10
2013,10,28,11,53,13.10
2013,10,28,11,54,13.20
2013,10,28,11,55,13.20
2013,10,28,11,56,13.30
2013,10,28,11,57,13.30
2013,10,28,11,58,13.30
2013,10,28,11,59,13.30
2013,10,28,12,00,13.40
2013,10,28,12,01,13.40
2013,10,28,12,02,13.40
2013,10,28,12,03,13.40
2013,10,28,12,04,13.40
2013,10,28,12,05,13.50
2013,10,28,12,06,13.60
2013,10,28,12,07,13.60
2013,10,28,12,08,13.70
2013,10,28,12,09,13.80
2013,10,28,12,10,13.80
2013,10,28,12,11,13.90
2013,10,28,12,12,14.00
2013,10,28,12,13,14.10
2013,10,28,12,14,14.20
2013,10,28,12,15,14.20
2013,10,28,12,16,14.30
2013,10,28,12,17,14.30
2013,10,28,12,18,14.30
2013,10,28,12,19,14.30
2013,10,28,12,20,14.30
2013,10,28,12,21,14.30
2013,10,28,12,22,14.30
2013,10,28,12,23,14.30
2013,10,28,12,24,14.40
2013,10,28,12,25,14.40
2013,10,28,12,26,14.40
2013,10,28,12,27,14.50
2013,10,28,12,28,14.60
2013,10,28,12,29,14.60
2013,10,28,12,30,14.70
2013,10,28,12,31,14.70
2013,10,28,12,32,14.80
2013,10,28,12,33,14.80
2013,10,28,12,34,14.90
2013,10,28,12,35,14.90
2013,10,28,12,36,14.90
2013,10,28,12,37,14.90
2013,10,28,12,38,14.90
2013,10,28,12,39,14.80
2013,10,28,12,40,14.80
2013,10,28,12,41,14.80
2013,10,28,12,42,14.70
2013,10,28,12,43,14.70
2013,10,28,12,44,14.70
2013,10,28,12,45,14.70
2013,10,28,12,46,14.70
2013,10,28,12,47,14.70
2013,10,28,12,48,14.70
2013,10,28,12,49,14.80
2013,10,28,12,50,14.80
2013,10,28,12,51,14.90
2013,10,28,12,52,14.90
2013,10,28,12,53,15.10
2013,10,28,12,54,15.20
2013,10,28,12,55,15.30
2013,10,28,12,56,15.40
2013,10,28,12,57,15.50
2013,10,28,12,58,15.60
2013,10,28,12,59,15.70
2013,10,28,13,00,15.80
2013,10,28,13,01,15.90
2013,10,28,13,02,16.10
2013,10,28,13,03,16.10
2013,10,28,13,04,16.20
2013,10,28,13,05,16.20
2013,10,28,13,06,16.30
2013,10,28,13,07,16.30
2013,10,28,13,08,16.40
2013,10,28,13,09,16.40
2013,10,28,13,10,16.40
2013,10,28,13,11,16.40
2013,10,28,13,12,16.50
2013,10,28,13,13,16.60
2013,10,28,13,14,16.60
2013,10,28,13,15,16.60
2013,10,28,13,16,16.60
2013,10,28,13,17,16.70
2013,10,28,13,18,16.70
2013,10,28,13,19,16.70
2013,10,28,13,20,16.70
2013,10,28,13,21,16.70
2013,10,28,13,22,16.70
2013,10,28,13,23,16.70
2013,10,28,13,24,16.70
2013,10,28,13,25,16.80
2013,10,28,13,26,16.80
2013,10,28,13,27,16.80
2013,10,28,13,28,16.80
2013,10,28,13,29,16.80
2013,10,28,13,30,16.80
2013,10,28,13,31,16.80
2013,10,28,13,32,16.80
2013,10,28,13,33,16.80
2013,10,28,13,34,16.80
2013,10,28,13,35,16.80
2013,10,28,13,36,16.80
2013,10,28,13,37,16.80
2013,10,28,13,38,16.80
2013,10,28,13,39,16.80
2013,10,28,13,40,16.80
2013,10,28,13,41,16.90
2013,10,28,13,42,16.90
2013,10,28,13,43,16.90
2013,10,28,13,44,16.90
2013,10,28,13,45,16.90
2013,10,28,13,46,16.90
2013,10,28,13,47,16.90
2013,10,28,13,48,16.90
2013,10,28,13,49,16.80
2013,10,28,13,50,16.80
2013,10,28,13,51,16.80
2013,10,28,13,52,16.80
2013,10,28,13,53,16.80
2013,10,28,13,54,16.70
2013,10,28,13,55,16.70
2013,10,28,13,56,16.70
2013,10,28,13,57,16.70
2013,10,28,13,58,16.60
2013,10,28,13,59,16.60
2013,10,28,14,00,16.60
2013,10,28,14,01,16.60
2013,10,28,14,02,16.50
2013,10,28,14,03,16.50
2013,10,28,14,04,16.50
2013,10,28,14,05,16.50
2013,10,28,14,06,16.50
2013,10,28,14,07,16.60
2013,10,28,14,08,16.60
2013,10,28,14,09,16.60
2013,10,28,14,10,16.60
2013,10,28,14,11,16.60
2013,10,28,14,12,16.60
2013,10,28,14,13,16.60
2013,10,28,14,14,16.70
2013,10,28,14,15,16.70
2013,10,28,14,16,16.70
2013,10,28,14,17,16.70
2013,10,28,14,18,16.70
2013,10,28,14,19,16.70
2013,10,28,14,20,16.70
2013,10,28,14,21,16.70
2013,10,28,14,22,16.70
2013,10,28,14,23,16.70
2013,10,28,14,24,16.70
2013,10,28,14,25,16.70
2013,10,28,14,26,16.80
2013,10,28,14,27,16.80
2013,10,28,14,28,16.80
2013,10,28,14,29,16.80
2013,10,28,14,30,16.80
2013,10,28,14,31,16.80
2013,10,28,14,32,16.80
2013,10,28,14,33,16.70
2013,10,28,14,34,16.80
2013,10,28,14,35,16.80
2013,10,28,14,36,16.80
2013,10,28,14,37,16.80
2013,10,28,14,38,16.80
2013,10,28,14,39,16.80
2013,10,28,14,40,16.90
2013,10,28,14,41,16.90
2013,10,28,14,42,17.00
2013,10,28,14,43,17.00
2013,10,28,14,44,17.10
2013,10,28,14,45,17.10
2013,10,28,14,46,17.10
2013,10,28,14,47,17.10
2013,10,28,14,48,17.10
2013,10,28,14,49,17.10
2013,10,28,14,50,17.00
2013,10,28,14,51,17.10
2013,10,28,14,52,17.00
2013,10,28,14,53,17.00
2013,10,28,14,54,17.00
2013,10,28,14,55,17.00
2013,10,28,14,56,17.00
2013,10,28,14,57,17.10
2013,10,28,14,58,17.10
2013,10,28,14,59,17.10
2013,10,28,15,00,17.10
2013,10,28,15,01,17.10
2013,10,28,15,02,17.10
2013,10,28,15,03,17.20
2013,10,28,15,04,17.10
2013,10,28,15,05,17.20
2013,10,28,15,06,17.10
2013,10,28,15,07,17.10
2013,10,28,15,08,17.10
2013,10,28,15,09,17.10
2013,10,28,15,10,17.10
2013,10,28,15,11,17.10
2013,10,28,15,12,17.10
2013,10,28,15,13,17.10
2013,10,28,15,14,17.10
2013,10,28,15,15,17.10
2013,10,28,15,16,17.20
2013,10,28,15,17,17.20
2013,10,28,15,18,17.20
2013,10,28,15,19,17.20
2013,10,28,15,20,17.20
2013,10,28,15,21,17.20
2013,10,28,15,22,17.10
2013,10,28,15,23,17.10
2013,10,28,15,24,17.10
2013,10,28,15,25,17.10
2013,10,28,15,26,17.10
2013,10,28,15,27,17.10
2013,10,28,15,28,17.10
2013,10,28,15,29,17.10
2013,10,28,15,30,17.10
2013,10,28,15,31,17.10
2013,10,28,15,32,17.10
2013,10,28,15,33,17.10
2013,10,28,15,34,17.10
2013,10,28,15,35,17.10
2013,10,28,15,36,17.10
2013,10,28,15,37,17.10
2013,10,28,15,38,17.10
2013,10,28,15,39,17.10
2013,10,28,15,40,17.10
2013,10,28,15,41,17.10
2013,10,28,15,42,17.10
2013,10,28,15,43,17.10
2013,10,28,15,44,17.10
2013,10,28,15,45,17.10
2013,10,28,15,46,17.10
2013,10,28,15,47,17.10
2013,10,28,15,48,17.20
2013,10,28,15,49,17.20
2013,10,28,15,50,17.20
2013,10,28,15,51,17.20
2013,10,28,15,52,17.30
2013,10,28,15,53,17.20
2013,10,28,15,54,17.20
2013,10,28,15,55,17.20
2013,10,28,15,56,17.20
2013,10,28,15,57,17.20
2013,10,28,15,58,17.20
2013,10,28,15,59,17.10
2013,10,28,16,00,17.10
2013,10,28,16,01,17.10
2013,10,28,16,02,17.10
2013,10,28,16,03,17.10
2013,10,28,16,04,17.10
2013,10,28,16,05,17.10
2013,10,28,16,06,17.10
2013,10,28,16,07,17.20
2013,10,28,16,08,17.20
2013,10,28,16,09,17.20
2013,10,28,16,10,17.20
2013,10,28,16,11,17.20
2013,10,28,16,12,17.20
2013,10,28,16,13,17.10
2013,10,28,16,14,17.10
2013,10,28,16,15,17.10
2013,10,28,16,16,17.10
2013,10,28,16,17,17.10
2013,10,28,16,18,17.10
2013,10,28,16,19,17.20
2013,10,28,16,20,17.20
2013,10,28,16,21,17.10
2013,10,28,16,22,17.10
2013,10,28,16,23,17.10
2013,10,28,16,24,17.10
2013,10,28,16,25,17.10
2013,10,28,16,26,17.10
2013,10,28,16,27,17.10
2013,10,28,16,28,17.10
2013,10,28,16,29,17.10
2013,10,28,16,30,17.10
2013,10,28,16,31,17.10
2013,10,28,16,32,17.00
2013,10,28,16,33,17.00
2013,10,28,16,34,16.90
2013,10,28,16,35,16.90
2013,10,28,16,36,16.90
2013,10,28,16,37,16.80
2013,10,28,16,38,16.80
2013,10,28,16,39,16.80
2013,10,28,16,40,16.80
2013,10,28,16,41,16.80
2013,10,28,16,42,16.80
2013,10,28,16,43,16.70
2013,10,28,16,44,16.70
2013,10,28,16,45,16.70
2013,10,28,16,46,16.70
2013,10,28,16,47,16.70
2013,10,28,16,48,16.60
2013,10,28,16,49,16.70
2013,10,28,16,50,16.60
2013,10,28,16,51,16.60
2013,10,28,16,52,16.60
2013,10,28,16,53,16.60
2013,10,28,16,54,16.60
2013,10,28,16,55,16.60
2013,10,28,16,56,16.70
2013,10,28,16,57,16.70
2013,10,28,16,58,16.60
2013,10,28,16,59,16.60
2013,10,28,17,00,16.60
2013,10,28,17,01,16.60
2013,10,28,17,02,16.50
2013,10,28,17,03,16.50
2013,10,28,17,04,16.40
2013,10,28,17,05,16.40
2013,10,28,17,06,16.40
2013,10,28,17,07,16.40
2013,10,28,17,08,16.40
2013,10,28,17,09,16.30
2013,10,28,17,10,16.30
2013,10,28,17,11,16.30
2013,10,28,17,12,16.20
2013,10,28,17,13,16.20
2013,10,28,17,14,16.20
2013,10,28,17,15,16.10
2013,10,28,17,16,16.10
2013,10,28,17,17,16.00
2013,10,28,17,18,15.90
2013,10,28,17,19,15.90
2013,10,28,17,20,15.90
2013,10,28,17,21,15.80
2013,10,28,17,22,15.80
2013,10,28,17,23,15.80
2013,10,28,17,24,15.70
2013,10,28,17,25,15.70
2013,10,28,17,26,15.60
2013,10,28,17,27,15.50
2013,10,28,17,28,15.40
2013,10,28,17,29,15.40
2013,10,28,17,30,15.30
2013,10,28,17,31,15.20
2013,10,28,17,32,15.20
2013,10,28,17,33,15.20
2013,10,28,17,34,15.10
2013,10,28,17,35,15.10
2013,10,28,17,36,15.00
2013,10,28,17,37,14.90
2013,10,28,17,38,14.90
2013,10,28,17,39,14.80
2013,10,28,17,40,14.80